www.pogodaiklimat.ru

Погода и климат >> Архив погоды >> Аргентина >> San Miguel de Tucuman


ПОГОДА в San Miguel de Tucuman

  • Прогноз погоды в San Miguel de Tucuman
  • Монитор погоды в San Miguel de Tucuman
  • Климат города

АРХИВ ПОГОДЫ в San Miguel de Tucuman

Время (UTC), дата Ветер
(напр.,м/с)
 
Видим.   Явления Облачность Т
(С)
Тd
(С)
f
(%)
Тe
(С)
Тes
(С)
Комфортность P
(гПа)
Po
(гПа)
Тmin
(С)
Tmax
(С)
R
(мм)
R24
(мм)
S
(см)
21 12.10 ЮЗ 4 4000 м слабая морось туман 10/9 240 м
[Frnb As op]
+13.5 +11.7 89 +12 +12 1016.9 964.5
00 13.10 З 4 7000 м дымка {морось} 10/9 240 м
[Frnb As op]
+12.5 +11.0 91 +11 +11 1020.2 967.4 +12.1 +15.3 1
03 13.10 штиль 0 9000 м дым 10/5 1200 м
[Sc Ac As]
+12.5 +10.4 87 +12 +12 1022.4 969.7
06 13.10 СВ 1 9000 м дым 10/5 1200 м
[Sc Ac As]
+13.0 +10.0 82 +13 +13 1021.7 969.2
09 13.10 штиль 0 9000 м дым 10/4 1200 м
[Sc Ac As]
+11.8 +9.1 84 +11 +11 1022.6 969.8
12 13.10 Ю 3 15 км 9/1 1200 м
[Sc Ac und]
+13.8 +7.5 66 +13 +14 1025.1 972.2 +11.4 +13.8 1
15 13.10 Ю 3 15 км 9/6 1050 м
[Cu hum Ac trans]
+16.8 +8.5 58 +17 +20 1024.0 971.4
18 13.10 ЮЗ 3 15 км 6/6 1050 м
[Cu hum Ac trans]
+20.8 +10.1 50 +23 +28 комфорт 1021.3 969.4
21 13.10 ЮЗ 4 15 км 3/3 1050 м
[Cu Sc]
+20.6 +8.2 45 +22 +23 комфорт 1020.7 968.6
00 14.10 СЗ 2 12 км ясно +16.0 +8.6 61 +16 +16 1023.2 970.8 +13.8 +20.8
03 14.10 С 3 12 км 3/0
[Cs]
+14.2 +8.4 68 +13 +13 1023.4 971.0
06 14.10 С 3 15 км ясно +11.7 +6.6 71 +10 +10 1022.5 970.4
09 14.10 СЗ 3 12 км ясно +8.6 +6.1 84 +6 +6 1023.5 971.0
12 14.10 З 2 15 км ясно +14.3 +7.4 63 +14 +19 1024.2 971.8 +7.8 +16.0
15 14.10 С 3 12 км ясно +22.4 +5.4 33 +23 +38 комфорт 1021.5 969.8
18 14.10 Ю 4 9000 м дым ясно +25.6 +6.5 29 +25 +36 комфорт 1017.6 966.1
21 14.10 7000 м дым ясно +26.6 +10.3 36 1016.3 964.6
00 15.10 В 3 9000 м дым ясно +19.8 +5.7 40 +21 +21 комфорт 1018.6 966.8 +14.3 +27.0
03 15.10 СВ 3 8000 м дым ясно +16.2 +5.8 50 +16 +16 1019.0 967.6
06 15.10 С 3 15 км ясно +13.0 +6.5 65 +12 +12 1017.2 965.8
09 15.10 С 5 15 км ясно +12.2 +5.6 64 +10 +10 1017.4 966.1
12 15.10 С 4 15 км 1/0
[Cs]
+19.1 +7.0 45 +20 +23 1018.6 967.2 +10.5 +19.8
15 15.10 В 2 15 км ясно +24.5 +7.4 33 +25 +43 комфорт 1016.5 965.4
18 15.10 СВ 4 12 км ясно +29.8 +10.6 30 +30 +41 жарко 1011.4 960.6
21 15.10 В 8 9000 м пыльный позёмок 4/0
[Cs]
+29.0 +15.8 45 +32 +33 душно 1009.0 958.2
00 16.10 СВ 6 9000 м пыльный позёмок 9/0
[Cs]
+24.4 +13.0 49 +26 +26 жарко 1010.5 959.8 +19.1 +30.5
03 16.10 З 2 8000 м дым 4/0
[Ac trans]
+20.8 +10.1 50 +23 +23 комфорт 1011.3 960.8
06 16.10 С 3 12 км 5/0
[Ac trans]
+19.2 +7.9 48 +20 +20 1008.6 958.6
09 16.10 С 3 12 км 6/6 1200 м
[Sc]
+17.2 +8.5 57 +17 +17 1008.2 958.0
12 16.10 ЮЗ 2 12 км 8/0
[Cs]
+20.6 +10.2 51 +23 +27 комфорт 1010.1 959.7 +15.2 +24.4
15 16.10 В 3 12 км 4/0
[Ci sp]
+26.6 +9.4 34 +27 +42 жарко 1007.7 957.6
18 16.10 ЮЗ 3 12 км 3/0
[Ci sp]
+31.8 +11.6 29 +32 +47 жарко 1003.2 953.6
21 16.10 ЮЗ 5 8000 м мгла 6/0
[Ac As Cs]
+28.6 +12.3 37 +30 +31 жарко 1002.9 952.9
00 17.10 З 2 5000 м мгла 6/0
[Ac As]
+25.2 +12.8 46 +27 +27 жарко 1006.1 955.8 +20.6 +33.2
03 17.10 С 2 7000 м дым 4/0
[Ac trans]
+20.6 +12.9 61 +23 +23 комфорт 1005.3 955.3
06 17.10 СЗ 4 7000 м ясно +20.2 +12.7 62 +22 +22 комфорт 1004.0 954.4
09 17.10 С 3 8000 м дым ясно +18.8 +12.2 65 +20 +20 1004.0 954.1
12 17.10 З 3 10 км ясно +24.5 +13.6 51 +27 +31 жарко 1005.5 955.7 +17.4 +25.2
15 17.10 З 2 10 км ясно +32.6 +14.4 33 +34 +52 опасность
солнечного
удара
1005.5 956.0
18 17.10 СЗ 4 12 км ясно +35.7 +10.8 22 +35 +48 очень
жарко
1003.3 954.1
21 17.10 Ю 1 9000 м дым 1/0
[Cs]
+36.4 +14.6 27 +37 +41 очень
жарко
1001.5 952.2
00 18.10 С 4 6000 м дым 3/0
[Ac trans Cs]
+29.1 +16.1 45 +32 +32 душно 1003.2 953.8 +24.5 +36.7
03 18.10 С 3 9000 м дым ясно +24.2 +14.0 53 +27 +27 жарко 1003.9 954.6
06 18.10 З 2 12 км ясно +23.2 +12.7 52 +26 +26 жарко 1003.0 954.0
09 18.10 С 3 12 км ясно +19.6 +13.5 68 +21 +21 комфорт 1001.9 952.8
12 18.10 СЗ 2 10 км ясно +26.4 +14.4 48 +29 +34 жарко 1001.9 952.6 +19.0 +29.1
15 18.10 штиль 0 10 км ясно +33.5 +17.3 38 +37 +62 опасность
солнечного
удара
999.6 950.6
18 18.10 СВ 5 10 км ясно +38.5 +18.7 32 +43 +52 опасность
перегрева
996.3 947.8
21 18.10 Ю 2 8000 м дым 6/1 1200 м
[Cb calv Ac As Cs]
+37.6 +19.0 34 +42 +45 опасность
перегрева
996.6 947.8
00 19.10 С 3 7000 м зарница 8/4 1200 м
[Cb cap Ac As]
+30.0 +19.8 54 +36 +36 очень
душно
999.9 950.9 +26.4 +38.6
03 19.10 С 3 8000 м зарница туман 4/1 1200 м
[Cb cap Ac As]
+27.6 +18.8 59 +33 +33 очень
душно
1003.1 954.2
06 19.10 Ю 3 8000 м гроза без осадков туман 10/8 750 м
[Cb cap Ac As]
+17.7 +16.2 91 +18 +18 1013.0 963.3 1
09 19.10 ЮВ 2 9000 м дымка {гроза} 10/8 900 м
[Sc Ac As]
+17.0 +14.3 84 +18 +18 1017.9 967.8
12 19.10 З 4 10 км {гроза} 9/9 1050 м
[Sc]
+19.4 +11.7 61 +21 +21 комфорт 1021.4 970.8 +17.0 +30.0 1

 

Местоположение метеостанции San Miguel de Tucuman (Аргентина): широта -26.85 долгота -65.09 высота над уровнем моря 450 м.

В архиве по умолчанию представлена погода в San Miguel de Tucuman за последнюю неделю. Архивные данные за месяц целиком и за предыдущие месяцы, начиная с января 2011 года, Вы можете получить, выбрав интересующий диапазон дат из раскрывающегося списка и нажав кнопку "Ввод!".

Внимание! Время в таблицах - всемирное. Для получения местного времени необходимо прибавить поправку, которая в San Miguel de Tucuman равна -3 ч.

Смотрите также архив погоды в соседних городах и на ближайших метеорологических станциях:

Погода в Santiago del Estero (Аргентина) (128 км)
Погода в San Fernando del Valle de Catamarca (Аргентина) (206 км)
Погода в Salta (Аргентина) (226 км)
Погода в San Salvador de Jujuy (Аргентина) (275 км)
Погода в La Rioja (Аргентина) (328 км)
Погода в Villa de Maria del Rio Seco (Аргентина) (366 км)
Погода в Chamical (Аргентина) (407 км)
Погода в San Ramon de la Nueva Oran (Аргентина) (419 км)
Погода в Ceres (Аргентина) (456 км)
Погода в Presidencia Roque Saenz Pena (Аргентина) (458 км)

Пояснения к столбцам:

Ветер - указаны скорость ветра в м/с - средняя за 10 мин, порывы в срок и между сроками (в фигурных скобках) и направление, откуда дует ветер: С - северный, СВ - северо-восточный, В - восточный, ЮВ - юго-восточный, Ю - южный, ЮЗ - юго-западный, З - западный, СЗ - северо-западный.
Видимость - горизонтальная дальность видимости в метрах или километрах. При видимости от 1 до 10 км при отсутствии осадков обычно наблюдается дымка, при ухудшении видимости до 1 км и менее - туман. В сухую погоду видимость может ухудшаться дымом, пылью или мглою.
Явления - указаны атмосферные явления, наблюдавшиеся в срок или в последний час перед сроком; фигурными скобками обозначены явления, наблюдавшиеся между сроками (за 1-3 часа до срока); квадратными скобками обозначены град или гололедные отложения с указанием их диаметра в мм.
Облачность - указаны через наклонную черту общая и нижняя облачность в баллах и высота нижней границы облаков в метрах; квадратными скобками обозначены формы облаков: Ci - перистые, Cs - перисто-слоистые, Cc - перисто-кучевые, Ac - высококучевые, As - высокослоистые, Sc - слоисто-кучевые, Ns - слоисто-дождевые, Cu - кучевые, Cb - кучево-дождевые. Подробнее классификацию облаков см. в Атласе облаков (PDF).
T - Температура воздуха - температура, измеренная на высоте 2 м над землей.
Td - Температура точки росы - температура, при понижении до которой содержащийся в воздухе водяной пар достигнет насыщения.
f - Относительная влажность воздуха - влажноcть воздуха, измеренная на высоте 2 м над землей.
Te - Эффективная температура - температура, которую ощущает одетый по сезону человек в тени. Характеристика душности погоды. При расчете учитывается влияние влажности воздуха и скорости ветра на теплоощущения человека.
Tes - Эффективная температура на солнце - температура, которую ощущает человек, с поправкой на солнечный нагрев. Характеристика знойности погоды. Зависит от высоты солнца над горизонтом, облачности и скорости ветра. Ночью, в пасмурную погоду, а также при ветре 12 м/с и более поправка равна нулю.
P - Атмосферное давление - приведенное к уровню моря атмосферное давление.
Po - Атмосферное давление - измеренное на уровне метеостанции атмосферное давление.
Tmin - Минимальная температура - минимум температуры воздуха на высоте 2 м над землей.
Tmax - Максимальная температура - максимум температуры воздуха на высоте 2 м над землей.
R - Количество осадков - Количество выпавших осадков за период времени, мм. При наведении курсора мыши на число - период времени, за который выпало указанное количество осадков.
R24 - Количество осадков - Количество выпавших осадков за 24 часа, мм.
S - Снежный покров - Высота снежного покрова, см. При наведении курсора мыши на число - состояние снежного покрова и степень покрытия местности в баллах.